FENGYUN 1C DEB

基本信息
目录编号:
30569
目录名称:
FENGYUN 1C DEB
国际标识:
1999-025ALK
轨道中心:
EARTH
物体状态:
在轨
发射日期:
1999-05-10 UTC
轨道信息
数据来源: 国际轨道数据
星历时间: 2026-09-10T18:36:12+0800
半长轴: 6985.86km
偏心率: 0.0004475
轨道倾角: 98.746°
近地点辐角: 291.827°
升交点赤经: 61.730°
平近点角: 68.247°
近地点: 604.596km
远地点: 610.85km
周期: 96.848分钟
每日圈数: 14.868699
详细信息
发射场:
TSC
轨道高度:
LEO
数据来源:
AOE Integration Group
参考系:
TEME
时间系统:
UTC
历元类型:
SGP4
2D轨道图
3D轨道图
轨道高度分析图
轨道倾角分析图
轨道综合分析图
查看轨道综合分析图